Flag for Maldives Weather past 2 weeks in Male, Maldives

Now
82 °F

Passing clouds.


Feels Like: 91 °F
Forecast: 82 / 87 °F
Wind: 6 mph from Northwest

Location: Male Airport

Current Time: Sep 22, 2014 at 4:06:34 AM

Latest Report: Sep 22, 2014 at 3:00 AM


Visibility: N/A

Pressure: 29.80 "Hg

Humidity: 84%

Dew point: 77 °F

Location of MaleLocation

Historic Weather in Male — Graph

°F

Male temperature yesterday

Maximum temperature yesterday: 86 °F (at 10:00 AM)
Minimum temperature yesterday: 81 °F (at 1:00 AM)
Average temperature yesterday: 84 °F

Past Weeks' High & Low Weather Summary

 TemperatureHumidityPressure
High88 °F (Sep 7, 1:00 PM)94% (Sep 10, 10:00 AM)29.98 "Hg (Sep 10, 10:00 AM)
Low77 °F (Sep 17, 5:00 PM)66% (Sep 14, 10:00 AM)29.77 "Hg (Sep 20, 4:00 PM)
Average83 °F79%29.88 "Hg
* Reported Sep 7 2:00 AM — Sep 22 2:00 AM, Male, Weather by CustomWeather, © 2014

Note: Actual official high and low records may vary slightly from our data, if they occured in-between our weather recording intervals... More about our weather records

Advertising

Male weather history for previous 24 hours

 ConditionsComfort  
Time TempWeatherWind HumidityBarometerVisibility
2:00 AM
Sep 22
82 °FPassing clouds.6 mph84%29.83 "HgN/A
1:00 AM82 °FPassing clouds.7 mph84%29.86 "HgN/A
12:00 AM82 °FSprinkles. Partly cloudy.3 mph84%29.89 "Hg6 mi
11:00 PM
Sep 21
81 °FPartly cloudy.6 mph79%29.92 "HgN/A
10:00 PM84 °FPassing clouds.3 mph79%29.92 "HgN/A
9:00 PM82 °FSprinkles. Partly cloudy.5 mph84%29.89 "Hg6 mi
8:00 PM84 °FPartly cloudy.6 mph79%29.89 "HgN/A
7:00 PM84 °FPassing clouds.8 mph79%29.86 "HgN/A
6:00 PM84 °FPartly sunny.9 mph79%29.83 "HgN/A
5:00 PM86 °FPartly sunny.7 mph75%29.80 "HgN/A
4:00 PM86 °FPartly sunny.7 mph70%29.80 "HgN/A
3:00 PM86 °FPartly sunny.8 mph75%29.80 "HgN/A
2:00 PM86 °FPartly sunny.8 mph75%29.80 "HgN/A
1:00 PM86 °FPartly sunny.9 mph75%29.83 "HgN/A
12:00 PM86 °FPartly sunny.9 mph70%29.86 "HgN/A
11:00 AM86 °FPartly sunny.9 mph75%29.89 "HgN/A
10:00 AM86 °FBroken clouds.8 mph75%29.89 "HgN/A
9:00 AM84 °FScattered clouds.6 mph79%29.89 "HgN/A
8:00 AM81 °FSprinkles. Partly sunny.6 mph84%29.89 "HgN/A
7:00 AM84 °FPartly sunny.8 mph79%29.86 "HgN/A
6:00 AM82 °FPartly sunny.9 mph79%29.83 "HgN/A
5:00 AM82 °FPartly cloudy.9 mph79%29.80 "HgN/A
4:00 AM82 °FPartly cloudy.10 mph84%29.80 "HgN/A
Weather by CustomWeather, © 2014

See weather overviewHow to use our weather pages